SCP
0 0 0 0 0 0 0 0 0 0 0 0 0 0 0 0 1 1 1 1 1 1 1 1 1 1 1 1 1 1 1 1 1 1 1 1 1 1 1 1 1 1 1 1
0 0 0 0 0 0 0 0 0 0 0 0 0 0 0 0 1 1 1 1 1 1 1 1 1 1 1 1 1 1 1 1 1 1 1 1 1 1 1 1 1 1 1 1
0 0 0 0 0 0 0 0 0 0 0 0 0 0 0 0 1 1 1 1 1 1 1 1 1 1 1 1 2 2 2 2 2 2 2 2 2 2 1 1 1 1 1 1
0 0 0 0 0 0 0 0 0 0 0 0 0 0 0 0 1 1 1 1 1 2 2 2 1 1 1 1 2 2 3 3 2 2 3 2 2 2 1 1 1 1 1 1
0 0 0 0 0 0 0 0 0 0 0 0 0 0 0 0 1 1 1 1 1 1 2 2 2 2 2 2 2 2 3 3 3 3 3 3 2 1 1 1 1 0 1 1
0 0 0 0 0 0 0 0 0 0 0 0 0 0 0 0 0 1 1 1 1 1 2 2 2 2 2 2 2 2 2 2 2 3 3 2 2 1 1 1 1 1 1 1
0 0 0 0 0 0 0 0 0 0 0 0 0 0 0 0 1 1 2 2 1 1 1 2 2 2 2 2 2 2 2 2 2 2 2 2 1 1 1 1 1 1 1 1
0 0 0 0 1 1 0 0 0 0 0 0 0 0 0 1 1 1 2 2 2 2 2 2 2 2 3 2 2 2 2 1 1 2 2 1 1 1 1 2 2 1 1 1
0 0 0 0 1 1 0 0 0 0 0 0 0 0 0 1 1 2 3 3 3 3 2 1 1 2 3 3 2 2 2 2 2 2 2 2 2 1 2 2 2 2 2 1
0 0 0 0 1 1 0 0 0 0 0 0 0 0 0 1 2 3 3 3 3 2 2 1 1 1 2 3 3 2 2 2 2 2 2 2 2 2 2 2 2 2 2 2
0 0 0 0 1 1 1 0 0 0 0 0 0 0 1 1 2 2 3 2 2 2 2 2 1 1 2 2 3 2 2 2 2 2 2 3 3 3 3 3 3 3 3 3
0 0 0 0 0 1 0 0 0 0 0 0 0 0 1 1 2 2 2 2 2 2 2 2 2 1 1 2 2 2 2 2 2 2 2 3 3 3 3 3 4 4 3 3
0 0 0 0 0 0 0 0 0 0 0 0 0 1 1 2 2 2 2 2 2 2 2 2 2 2 1 2 2 2 2 2 2 2 2 2 2 3 3 4 5 5 4 4
0 0 0 0 0 0 0 0 0 0 0 0 0 1 1 2 2 2 2 2 3 3 3 4 3 2 1 2 2 2 2 1 2 2 2 2 2 2 3 5 6 6 5 4
0 0 0 0 0 0 0 0 0 0 0 0 1 1 1 2 2 2 2 2 3 3 3 4 4 3 3 3 2 2 2 2 2 2 2 2 2 2 3 4 5 6 5 4
0 0 0 0 1 0 0 0 0 0 0 1 1 1 1 1 1 2 2 2 2 2 3 3 4 4 4 4 4 4 3 2 2 2 2 3 3 2 3 4 5 6 5 3
0 0 0 1 1 0 0 0 0 1 1 1 1 1 1 1 2 2 2 2 2 2 2 3 3 3 3 4 5 4 3 2 2 3 3 4 4 3 3 4 5 5 4 3
0 0 0 0 0 0 0 1 1 1 1 1 1 2 2 2 2 2 2 3 3 3 3 2 2 2 2 3 4 4 3 3 3 3 3 4 4 3 4 5 5 4 3 2
0 0 0 0 0 1 1 1 1 1 1 1 2 2 3 3 2 2 2 2 3 4 3 2 2 2 2 3 3 4 4 3 3 3 3 3 3 3 4 5 4 3 3 3
0 0 0 0 0 1 1 1 1 1 1 1 2 2 2 2 2 2 2 2 3 3 2 2 3 3 3 3 3 4 3 3 2 2 2 2 2 3 3 3 3 3 3 3
0 0 0 0 0 0 1 1 1 1 1 1 2 2 2 2 2 3 3 3 3 3 2 3 4 4 4 4 4 3 3 3 3 3 3 3 3 3 3 2 2 3 3 4
0 0 0 0 0 0 1 1 1 1 1 1 1 1 1 2 2 3 3 3 3 3 3 3 4 5 5 5 4 3 3 3 3 3 3 4 4 4 4 3 3 3 4 4
0 0 0 0 0 1 1 1 1 1 1 1 1 1 1 2 2 2 3 3 3 3 3 4 4 4 4 4 3 3 3 3 3 3 3 4 5 6 6 6 5 5 5 5
0 0 0 1 1 1 1 1 1 1 1 1 1 1 2 2 2 3 4 5 4 4 4 4 4 4 4 4 3 3 3 4 4 4 3 4 4 5 6 7 7 7 8 8
0 0 1 1 1 1 1 1 1 1 1 1 1 2 3 3 4 5 7 8 7 6 6 5 5 5 4 4 4 3 4 4 4 4 3 3 3 3 4 5 6 7 8 8
0 0 0 1 1 1 1 1 1 1 1 1 1 2 4 4 5 7 10 11 10 8 7 6 6 5 4 4 4 4 3 3 3 3 4 3 3 3 3 3 4 5 6 6
Wind_Speed
2 4 3 7 7 5 4 3 3 4 2 3 4 4 5 7 7 7 7 7 8 8 7 5 5 6 5 5 5 4 4 3 3 2 2 2 1 0 0 1 2 2 3 3
4 2 6 4 3 3 3 2 2 2 1 2 2 3 3 7 9 9 9 9 10 8 5 6 6 6 6 6 6 5 5 4 3 3 2 2 1 1 1 0 0 1 2 3
4 5 3 3 2 2 2 4 4 2 2 3 2 4 2 3 4 5 6 7 8 10 10 8 8 8 7 7 7 6 6 5 4 3 2 2 2 1 1 0 0 0 2 2
3 3 2 2 2 4 4 5 4 3 3 1 1 2 5 3 4 6 8 8 8 9 9 8 9 8 9 8 7 6 6 5 4 4 3 3 2 2 1 1 0 0 1 2
4 2 3 3 4 6 4 2 3 2 3 1 1 1 7 1 4 9 9 10 9 9 10 10 10 10 9 8 7 6 5 4 4 4 4 4 2 2 1 0 0 1 1 1
3 2 3 4 2 4 4 6 5 5 4 0 3 3 6 4 8 7 8 10 9 9 9 9 8 7 6 6 6 6 6 5 4 5 4 4 4 2 2 1 1 1 1 1
3 3 2 1 2 2 5 6 4 4 3 4 2 2 8 6 6 7 7 8 8 7 8 8 9 9 8 8 7 7 7 6 5 5 5 5 5 4 4 3 2 2 1 1
2 4 3 1 4 4 4 8 8 5 4 4 1 4 7 4 4 3 4 5 5 6 6 8 9 10 9 9 8 7 7 6 5 5 5 4 4 3 2 2 2 2 2 2
5 5 4 1 1 6 5 3 5 7 2 1 4 6 7 3 3 1 0 2 5 6 7 7 7 8 8 8 8 8 7 6 6 6 5 4 3 3 2 2 2 2 2 2
6 3 3 2 3 4 5 7 5 6 5 3 4 3 4 5 4 3 1 2 4 5 5 5 5 6 7 7 6 6 6 6 6 5 5 4 4 3 3 2 3 2 2 2
4 4 3 2 2 3 3 3 5 4 5 6 3 7 6 6 5 4 4 4 4 5 5 5 5 4 5 5 6 6 6 5 5 5 4 3 4 4 3 3 3 3 2 2
3 5 1 4 3 2 4 5 7 5 3 4 4 8 4 4 3 3 3 3 3 3 4 4 5 5 4 5 5 6 6 5 5 5 4 4 3 2 2 3 2 2 2 1
4 6 2 5 4 2 2 2 3 5 5 4 4 7 2 0 0 1 2 1 1 2 3 3 4 4 5 4 4 4 5 5 5 4 4 3 3 3 3 3 2 2 2 1
6 4 6 8 7 4 2 2 3 5 4 4 7 7 4 2 2 2 2 1 2 3 3 3 4 4 4 4 4 4 3 3 4 4 4 4 4 4 3 3 2 2 2 2
5 3 3 3 3 3 3 4 5 4 7 7 7 7 8 5 5 4 2 2 3 4 3 4 4 4 4 4 3 3 2 3 3 4 4 4 3 3 3 2 2 2 2 2
4 3 1 1 1 1 2 3 4 4 4 4 4 7 5 2 2 2 2 4 4 4 4 4 4 4 4 4 4 3 3 3 3 4 3 3 3 3 3 3 3 2 2 2
2 4 3 2 2 2 3 4 5 4 3 5 7 7 2 2 3 4 5 5 5 5 5 5 4 4 4 4 4 4 3 3 3 3 2 2 2 3 3 3 3 3 3 2
5 4 3 1 1 5 7 3 4 4 3 3 4 3 4 4 3 2 3 5 4 4 4 4 4 4 4 3 3 3 3 3 3 2 1 1 2 2 2 3 3 3 3 3
4 6 4 3 2 5 5 1 2 3 3 2 3 2 1 2 2 1 1 3 4 4 4 4 4 4 4 4 4 4 3 3 3 2 2 2 2 2 2 3 3 3 3 3
4 4 5 4 3 5 5 3 2 2 3 3 2 3 3 3 1 4 2 2 3 3 4 3 3 4 4 4 4 5 4 3 3 2 2 1 2 2 2 3 3 2 3 3
3 3 3 3 3 6 4 4 1 3 6 3 2 3 3 3 5 4 1 1 3 3 4 4 4 4 4 4 5 5 4 3 3 2 2 1 1 2 2 2 2 2 2 2
4 3 3 3 3 6 3 1 3 5 3 1 2 3 3 3 2 2 2 2 3 3 4 4 4 3 3 4 6 5 4 3 2 3 2 1 1 1 1 1 1 2 2 2
4 5 5 6 7 5 2 3 4 3 2 2 3 3 3 3 2 2 2 2 2 3 4 4 4 3 2 3 5 5 4 3 3 3 2 2 1 1 1 1 1 1 2 2
2 2 2 2 4 4 4 2 2 1 2 2 2 2 2 2 1 1 2 2 2 2 3 3 4 4 3 2 3 3 3 3 4 3 2 1 1 1 0 0 1 1 1 2
4 1 1 3 4 3 3 3 3 2 2 1 1 1 1 2 2 2 2 2 2 2 2 3 4 4 4 3 2 2 3 4 4 2 1 1 1 1 1 0 1 1 2 3
4 5 5 6 5 3 4 4 2 1 2 1 1 3 2 1 3 2 2 2 2 2 2 2 2 3 3 3 2 1 2 4 4 3 2 1 1 1 1 0 1 2 1 1
Wind_Direction
93 91 184 209 195 190 173 188 246 256 222 162 208 229 216 187 188 195 199 199 203 211 207 188 184 180 172 172 170 172 168 164 147 141 149 153 174 175 99 204 182 180 176 164
55 242 223 197 190 165 163 184 263 305 28 153 220 257 222 192 201 200 202 205 206 206 199 190 186 185 184 183 182 179 180 176 171 172 164 150 144 151 178 241 188 180 181 177
180 229 187 154 166 146 194 188 211 211 32 41 79 329 272 221 210 211 212 209 207 205 202 197 192 193 189 190 189 189 188 186 182 162 124 103 80 55 49 26 290 196 182 182
216 241 156 150 195 155 247 226 188 163 116 295 119 270 281 238 227 221 220 213 211 214 204 198 196 195 195 198 190 187 186 186 177 161 157 153 160 184 212 206 247 263 180 180
227 191 157 195 216 174 215 147 131 132 138 66 5 165 286 235 240 238 225 219 214 213 204 200 199 198 196 191 185 184 180 182 175 172 172 165 173 194 173 133 221 246 235 204
234 230 190 202 207 160 132 72 57 54 77 228 241 174 273 226 225 238 227 221 215 211 203 197 192 185 187 182 179 175 175 183 178 177 177 175 179 188 177 192 219 253 257 236
321 312 295 144 87 46 96 92 40 2 10 254 248 186 250 246 232 226 226 222 212 203 195 189 184 182 184 184 182 178 180 188 183 180 186 191 190 191 196 201 209 218 236 245
181 277 268 197 167 171 160 139 156 189 217 271 313 233 255 269 259 246 229 216 196 193 193 188 188 185 186 186 181 178 182 186 182 183 191 193 186 183 196 204 203 213 227 235
176 244 291 262 183 141 139 163 161 134 147 272 277 284 306 331 341 333 240 190 198 196 192 187 183 182 182 182 182 181 180 181 183 186 185 186 186 186 195 208 210 218 227 227
154 209 288 293 66 40 133 143 105 120 146 229 284 275 261 289 289 291 267 224 221 205 189 178 178 184 183 180 177 171 172 182 186 187 191 193 189 197 200 198 214 224 228 223
133 152 306 20 134 180 99 98 105 115 151 160 231 264 229 229 237 229 236 229 211 197 187 177 174 172 172 165 167 171 175 173 177 183 188 186 189 194 194 206 220 220 219 210
139 123 228 267 269 195 154 156 145 149 204 177 183 259 274 226 227 196 218 229 209 187 173 159 153 147 149 162 171 176 176 177 185 183 178 189 193 185 193 215 229 218 212 199
135 115 81 340 333 8 95 140 142 126 123 158 181 259 303 331 283 197 206 209 142 140 136 130 136 149 159 162 163 172 177 183 183 175 177 184 192 195 203 211 214 206 198 180
117 121 166 196 216 203 208 195 163 130 151 195 218 242 273 254 244 249 224 185 142 139 139 137 144 154 159 157 159 165 175 171 168 171 180 193 205 207 207 204 201 199 190 182
102 139 200 232 233 197 212 211 193 189 188 191 224 225 239 223 217 221 199 151 138 146 149 158 161 163 158 148 150 158 167 167 170 171 183 202 206 199 193 193 197 193 187 192
74 126 132 298 268 215 237 237 211 217 207 215 221 251 242 213 162 165 174 167 165 175 177 172 167 166 165 164 165 166 174 177 167 172 189 193 183 183 194 199 192 187 189 185
89 116 110 253 300 50 252 227 204 209 217 187 208 231 190 176 191 195 191 186 190 190 182 176 177 179 182 183 177 175 182 171 163 171 181 182 183 190 203 199 187 196 194 179
134 112 119 130 80 224 246 248 194 191 234 238 241 231 187 198 215 210 182 181 191 189 184 184 179 177 179 173 165 160 154 160 162 163 173 182 185 198 196 187 198 206 194 189
144 134 121 123 178 269 287 266 173 175 251 265 230 211 157 140 70 329 217 183 191 182 178 181 183 172 161 163 159 144 139 142 148 167 188 199 190 188 180 192 207 203 191 198
72 99 116 129 163 230 251 286 273 133 266 278 208 187 168 113 138 255 238 172 171 157 151 152 156 146 152 161 150 142 145 142 157 183 192 182 175 181 191 202 204 193 188 205
56 58 121 158 211 256 269 295 53 161 243 267 205 188 174 190 216 230 202 164 156 152 143 137 139 152 164 159 147 144 148 174 189 173 154 146 151 182 195 195 193 180 184 192
167 156 179 154 196 251 288 67 174 226 260 222 206 203 199 214 228 202 164 147 137 128 118 123 132 147 151 152 148 150 176 192 162 141 135 150 182 187 166 174 194 181 174 191
193 190 188 190 212 244 261 224 241 219 218 228 217 232 199 198 223 212 162 149 152 140 130 130 133 133 136 157 159 167 189 165 142 133 148 172 180 179 151 170 193 198 187 202
257 169 158 247 264 272 279 284 295 267 244 250 238 240 201 191 193 189 179 153 142 142 146 140 132 138 156 168 166 178 165 148 138 142 161 175 175 198 204 188 199 203 210 220
236 177 172 256 270 299 302 302 302 327 348 30 23 39 162 148 152 173 179 172 164 161 158 153 157 163 174 166 157 163 155 143 138 142 155 165 192 208 220 237 243 231 227 210
212 190 188 226 226 210 257 283 302 332 332 360 34 25 23 129 155 156 164 177 169 164 154 155 165 163 161 145 147 163 158 150 149 152 166 176 190 211 220 219 345 355 296 254